Venez Explorer Les Airs Avec Nous!

Que ce soit pour un vol de découverte, pour apprendre l’arts du pilotage ou pour voyager, venez nous rejoindre.

Information en heures locale pour LFDL
12 July 2020

Metar
LFBI 121800Z AUTO 04010KT 010V080 CAVOK 26/08 Q1021 NOSIG

Lever du soleil : 06:18

Coucher du soleil : 21:52

Actualité

Nous sommes heureux d’accueillir un ULM Savannah au sein de notre flotte. Grace à cet appareil, vous pourrez découvrir une …

Bonjour tout le monde !

Bienvenue à tous, l’ Aéroclub Loudunais vous accueille sur son nouveau site internet.

Newsletter Sign Up

Praesent libero sed cursus anted dapibus diam